World > North America > United States > New York > Worcester  

Worcester, NY Hourly Weather Updates

Feedback E-mail the Weather

Quick Clicks

Worcester, NY Weather Maps

°F °C°F °C
Worcester Weather Map
UTC Time: 6/21/2024, 17:51
Your Time:

Worcester, NY Regional Weather

Expires:202406211800;;416976
ASUS41 KBGM 211710
RWRBGM

REGIONAL WEATHER ROUNDUP
NATIONAL WEATHER SERVICE BINGHAMTON NY
100 PM EDT FRI JUN 21 2024

Note: "fair" indicates few or no clouds below 12,000 feet with no
significant weather and/or obstructions to visibility.

* = Station(s) that does not report precipitation, such as rain, 
snow, etc, also no thunder or fog.


NYZ009-015>018-022>025-036-037-044>046-055>057-062-211800
...Central New York...
  
CITY           SKY/WX    TMP DP  RH WIND       PRES   REMARKS
Binghamton     PTSUNNY   85  69  58 W14       30.20F HX  89           
Cortland       MOSUNNY   86  66  51 W9        30.19F HX  88           
Dansville      CLOUDY    77  71  82 NW3       30.20                   
Elmira         PTSUNNY   83  75  77 SE3       30.16F HX  90           
Endicott       MOSUNNY   88  70  55 W9        30.15  HX  92           
Ithaca         MOSUNNY   86  72  62 NW9       30.19F HX  92           
Hamilton       SUNNY     79  68  69 S8        30.22S                  
Monticello     NOT AVBL                                               
Norwich        HVY RAIN  72  68  88 N9        30.24S                  
Oneonta        CLOUDY    72  66  83 N17G25    30.24R                  
Penn Yan       PTSUNNY   83  72  69 VRB3      30.19F HX  88           
Rome           CLOUDY    83  69  62 NW3       30.17S HX  86           
Seneca Falls   SUNNY     86  66  51 N7        30.17F HX  88           
Skaneateles    MOSUNNY   84  70  61 VRB5      30.18F HX  88           
Syracuse       PTSUNNY   87  69  54 NW7       30.16F HX  91           
$$
 

SKY/WX - Weather  TMP - Temperature  DP - Dew Point  RH - Humidity
WIND - Wind Direction/Speed PRES - Barometric Pressure VSB - Visibility
WCI - Wind Chill Index E13G22 Wind - East Wind 13 mph/Gusts of 22 mph

Trending Headlines

Trending Entertainment Headlines

Worcester Radar Loop

Use the map search tool if you want to place a location marker on the radar map...

Worcester Quick Facts

National Two Day Weather Forecast


E-mail the Worcester Weather Forecast

Voice your opinion or tell us about page issues...